Location: Abraham Lincoln Continuation High School
(33.9711°N, 117.3662°W)
Time: 14:42:29
(UTC+00:00)

GOES 2 Rocket - Pass Details

Date: 21 September 2020
Orbit: 569 x 1674 km, 28.4° (Epoch: 28 October)

Event Time Altitude Azimuth Distance (km) Brightness Sun altitude
Rises 02:52:11 0° 245° (WSW) 2,795 7.4 -14.1°
Reaches altitude 10° 02:54:37 10° 236° (SW) 1,860 6.2 -14.5°
Maximum altitude 02:58:24 34° 170° (S) 952 3.8 -15.3°
Enters shadow 03:00:01 25° 129° (SE) 1,182 4.0 -15.6°
